MDT,Max TemperatureF,Mean TemperatureF,Min TemperatureF,Max Dew PointF,MeanDew PointF,Min DewpointF,Max Humidity, Mean Humidity, Min Humidity, Max Sea Level PressureIn, Mean Sea Level PressureIn, Min Sea Level PressureIn, Max VisibilityMiles, Mean VisibilityMiles, Min VisibilityMiles, Max Wind SpeedMPH, Mean Wind SpeedMPH, Max Gust SpeedMPH,PrecipitationIn, CloudCover, Events, WindDirDegrees
2013-9-1,82,57,32,77,55,32,100,88,81,30.30,30.24,30.15,10,10,10,10,1,16,0.00,1,,266
2013-9-2,66,52,37,63,49,32,100,88,81,30.25,30.22,30.20,10,10,8,16,2,23,0.00,4,Rain,85
2013-9-3,77,59,41,73,55,36,100,85,81,30.38,30.29,30.23,10,10,0,28,3,39,0.00,4,Fog-Rain,219
2013-9-4,75,62,50,72,57,45,89,85,82,30.39,30.34,30.31,10,10,2,17,3,21,0.00,4,,220
2013-9-5,77,58,39,73,53,36,100,86,81,30.36,30.30,30.21,10,10,10,21,2,28,0.00,2,Rain,224
2013-9-6,80,60,39,75,53,36,89,84,81,30.31,30.27,30.22,10,10,5,20,3,32,0.01,1,Rain,182
2013-9-7,75,57,39,72,51,36,89,84,81,30.31,30.28,30.22,10,10,4,21,3,29,0.09,1,Rain,221
2013-9-8,71,56,41,66,47,37,88,84,81,30.24,30.17,30.08,10,9,0,21,3,29,0.14,3,Rain,211
2013-9-9,62,50,39,59,46,34,88,84,81,30.22,30.15,30.11,10,8,0,12,3,,0.00,5,Fog,12
2013-9-10,73,50,28,68,48,25,88,84,80,30.29,30.23,30.18,10,10,7,9,2,,0.00,1,,313
2013-9-11,77,54,32,72,52,28,89,85,81,30.38,30.33,30.28,10,10,10,15,4,24,0.00,0,,69
2013-9-12,57,49,41,54,44,37,88,84,81,30.41,30.35,30.25,10,10,3,12,2,,0.02,2,Rain,360
2013-9-13,71,55,39,66,47,34,88,84,81,30.25,30.13,30.01,10,8,0,12,2,18,0.00,4,Fog,238
2013-9-14,59,52,46,55,48,41,88,84,81,30.20,30.13,30.07,10,10,4,15,3,21,0.03,6,Rain,54
2013-9-15,66,55,44,63,49,39,88,84,81,30.24,30.21,30.16,10,10,10,13,1,26,0.00,6,Rain,177
2013-9-16,73,56,39,68,51,36,88,84,81,30.18,30.13,30.04,10,9,0,18,4,25,0.00,4,Fog-Rain,208
2013-9-17,57,49,41,54,46,37,88,85,81,30.06,29.95,29.83,10,9,3,13,3,23,0.53,5,Rain,118
2013-9-18,46,40,33,41,36,30,87,84,81,30.16,29.98,29.83,10,9,2,22,7,41,0.21,6,Rain,219
2013-9-19,53,42,32,48,35,27,88,85,80,30.28,30.23,30.16,10,10,10,8,2,,0.00,4,,194
2013-9-20,64,44,23,59,37,19,93,85,80,30.24,30.14,30.03,10,10,10,12,2,18,0.00,0,,204
2013-9-21,69,48,26,64,43,23,88,85,80,30.02,29.91,29.76,10,10,10,18,4,33,0.00,1,,199
2013-9-22,59,49,39,54,43,34,88,84,81,29.88,29.78,29.73,10,10,3,21,6,30,0.12,4,Rain,217
2013-9-23,55,46,37,50,40,32,87,84,81,30.10,30.01,29.88,10,10,7,21,11,30,0.00,3,Rain,220
2013-9-24,57,46,35,54,40,32,88,84,81,30.11,29.98,29.83,10,10,3,24,6,31,0.07,5,Rain,216
2013-9-25,44,38,33,41,34,30,87,85,81,29.81,29.73,29.64,10,9,3,22,4,29,0.04,7,Rain,180
2013-9-26,41,36,32,37,31,28,87,86,81,29.93,29.85,29.76,10,10,2,14,5,17,0.00,6,Rain-Snow,44
2013-9-27,41,36,30,37,31,27,87,84,80,30.07,29.98,29.91,10,8,2,13,5,20,0.03,6,Rain-Snow,284
2013-9-28,46,39,32,41,34,28,87,85,81,30.15,30.10,30.05,10,9,2,24,12,37,0.00,7,Rain-Snow,222
2013-9-29,46,44,41,41,39,37,87,83,81,30.07,29.93,29.85,10,8,3,32,12,45,0.19,7,Rain,229
2013-9-30,53,42,32,48,38,28,87,84,81,30.03,29.84,29.73,10,9,2,32,15,60,0.20,6,Rain,229